sat.trackr.live / text

‹ back to catalog

STARLINK-36336

NORAD 67901 · 2026-035Y

PAYLOAD ACTIVE UNKNOWN

§ Identity

Operator
Country
US
Launch date
2026-02-21
Launch site
AFWTR
Launch vehicle
Mass (kg)
RCS (m²)

Purposes: comms

External: N2YO · Heavens-Above · Gunter

§ Orbital elements

Epoch: 2026-05-25T01:24:29.231424Z

Period
93.91 min
Inclination
97.2837°
Eccentricity
0.0001370
Mean motion
15.33452024 rev/d
Perigee alt
464.6 km
Apogee alt
466.5 km
Semi-major
6,843.7 km
B*
7.0626e-4
RAAN
78.6121°
Arg perigee
96.6956°
Mean anomaly
263.4443°
Rev number
1,569

§ Raw data

STARLINK-363361 67901U 26035Y   26145.05867166  .00022800  00000+0  70626-3 0  99912 67901  97.2837  78.6121 0001370  96.6956 263.4443 15.33452024 15694

JSON: /api/v1/satellites/67901 · /tle

For live sub-satellite position, see the globe view (requires WebGL).

§ Visibility from observer

Set your observer location to see the next 7 days of passes ≥ 10°. The values pass through the URL so the page stays shareable.

No JS? Fill the form by hand. The geolocation button needs JavaScript.